Time,TemperatureF,DewpointF,PressureIn,WindDirection,WindDirectionDegrees,WindSpeedMPH,WindSpeedGustMPH,Humidity,HourlyPrecipIn,Conditions,Clouds,dailyrainin,SoftwareType,DateUTC
2013-11-11 00:10:00,77.6,-99.9,30.04,NE,55,4.0,5.0,255,0.00,,,0.00,Wunderground v.1.13,2013-11-11 05:10:00,
2013-11-11 00:15:00,77.6,-99.9,30.04,NE,52,4.0,8.0,255,0.00,,,0.00,Wunderground v.1.13,2013-11-11 05:15:00,
2013-11-11 00:20:00,77.6,-99.9,30.04,NNE,25,4.0,4.0,255,0.00,,,0.00,Wunderground v.1.13,2013-11-11 05:20:00,
2013-11-11 00:25:00,77.4,-99.9,30.04,NE,34,4.0,5.0,255,0.00,,,0.00,Wunderground v.1.13,2013-11-11 05:25:00,
2013-11-11 00:30:00,77.4,-99.9,30.04,NE,55,4.0,4.0,255,0.00,,,0.00,Wunderground v.1.13,2013-11-11 05:30:00,
2013-11-11 00:35:00,77.4,-99.9,30.04,NE,44,5.0,5.0,255,0.00,,,0.00,Wunderground v.1.13,2013-11-11 05:35:00,
2013-11-11 00:40:00,77.4,-99.9,30.04,NE,41,5.0,5.0,255,0.00,,,0.00,Wunderground v.1.13,2013-11-11 05:40:00,
2013-11-11 00:50:00,77.2,-99.9,30.04,NE,43,4.0,5.0,255,0.00,,,0.00,Wunderground v.1.13,2013-11-11 05:50:00,
2013-11-11 01:00:00,77.2,-99.9,30.04,NE,46,4.0,6.0,255,0.00,,,0.00,Wunderground v.1.13,2013-11-11 06:00:00,
2013-11-11 01:10:00,77.2,-99.9,30.04,NE,42,4.0,4.0,255,0.00,,,0.00,Wunderground v.1.13,2013-11-11 06:10:00,
2013-11-11 01:20:00,77.2,-99.9,30.04,NE,42,5.0,5.0,255,0.00,,,0.00,Wunderground v.1.13,2013-11-11 06:20:00,
2013-11-11 01:30:00,77.0,-99.9,30.04,NE,43,4.0,6.0,255,0.00,,,0.00,Wunderground v.1.13,2013-11-11 06:30:00,
2013-11-11 01:40:00,77.0,-99.9,30.04,NE,41,4.0,4.0,255,0.00,,,0.00,Wunderground v.1.13,2013-11-11 06:40:00,
2013-11-11 01:50:00,77.0,-99.9,30.04,NE,38,4.0,4.0,255,0.00,,,0.00,Wunderground v.1.13,2013-11-11 06:50:00,
2013-11-11 02:00:00,77.0,-99.9,30.03,NE,37,4.0,4.0,255,0.07,,,0.03,Wunderground v.1.13,2013-11-11 07:00:00,
2013-11-11 02:10:00,77.0,-99.9,30.03,NE,46,4.0,6.0,255,0.00,,,0.03,Wunderground v.1.13,2013-11-11 07:10:00,
2013-11-11 02:15:00,77.0,-99.9,30.03,NE,39,4.0,4.0,255,0.00,,,0.03,Wunderground v.1.13,2013-11-11 07:15:00,
2013-11-11 02:20:00,77.0,-99.9,30.03,NE,42,4.0,4.0,255,0.00,,,0.03,Wunderground v.1.13,2013-11-11 07:20:00,
2013-11-11 02:30:00,77.0,-99.9,30.03,NE,42,4.0,5.0,255,0.00,,,0.03,Wunderground v.1.13,2013-11-11 07:30:00,
2013-11-11 02:35:00,77.0,-99.9,30.03,NE,47,4.0,4.0,255,0.00,,,0.03,Wunderground v.1.13,2013-11-11 07:35:00,
2013-11-11 02:45:00,76.8,-99.9,30.03,NE,50,4.0,4.0,255,0.00,,,0.03,Wunderground v.1.13,2013-11-11 07:45:00,
2013-11-11 02:50:00,76.8,-99.9,30.03,NE,50,3.0,5.0,255,0.00,,,0.03,Wunderground v.1.13,2013-11-11 07:50:00,
2013-11-11 03:00:00,76.8,-99.9,30.03,NE,51,4.0,4.0,255,0.00,,,0.03,Wunderground v.1.13,2013-11-11 08:00:00,
2013-11-11 03:10:00,76.8,-99.9,30.03,NE,50,4.0,4.0,255,0.00,,,0.03,Wunderground v.1.13,2013-11-11 08:10:00,
2013-11-11 03:20:00,76.8,-99.9,30.02,NE,50,4.0,4.0,255,0.00,,,0.03,Wunderground v.1.13,2013-11-11 08:20:00,
2013-11-11 03:30:00,76.8,-99.9,30.02,NE,50,3.0,3.0,255,0.00,,,0.03,Wunderground v.1.13,2013-11-11 08:30:00,
2013-11-11 03:40:00,77.0,-99.9,30.02,NE,49,3.0,4.0,255,0.00,,,0.03,Wunderground v.1.13,2013-11-11 08:40:00,
2013-11-11 03:50:00,76.8,-99.9,30.02,NE,44,4.0,4.0,255,0.00,,,0.03,Wunderground v.1.13,2013-11-11 08:50:00,
2013-11-11 03:55:00,77.0,-99.9,30.02,NE,47,4.0,4.0,255,0.00,,,0.03,Wunderground v.1.13,2013-11-11 08:55:00,
2013-11-11 04:00:00,76.8,-99.9,30.02,NE,46,3.0,3.0,255,0.00,,,0.03,Wunderground v.1.13,2013-11-11 09:00:00,
2013-11-11 04:10:00,76.8,-99.9,30.02,NE,51,3.0,3.0,255,0.00,,,0.03,Wunderground v.1.13,2013-11-11 09:10:00,
2013-11-11 04:15:00,76.8,-99.9,30.02,NE,51,4.0,4.0,255,0.00,,,0.03,Wunderground v.1.13,2013-11-11 09:15:00,
2013-11-11 04:20:00,77.0,-99.9,30.02,NNE,26,4.0,4.0,255,0.00,,,0.03,Wunderground v.1.13,2013-11-11 09:20:00,
2013-11-11 04:25:00,76.8,-99.9,30.02,NNE,32,4.0,4.0,255,0.00,,,0.03,Wunderground v.1.13,2013-11-11 09:25:00,
2013-11-11 04:30:00,77.0,-99.9,30.02,NE,35,4.0,4.0,255,0.00,,,0.03,Wunderground v.1.13,2013-11-11 09:30:00,
2013-11-11 04:40:00,77.0,-99.9,30.02,NE,37,4.0,4.0,255,0.00,,,0.03,Wunderground v.1.13,2013-11-11 09:40:00,
2013-11-11 04:45:00,77.0,-99.9,30.02,NE,51,4.0,4.0,255,0.00,,,0.03,Wunderground v.1.13,2013-11-11 09:45:00,
2013-11-11 04:55:00,77.0,-99.9,30.02,NE,42,4.0,4.0,255,0.00,,,0.03,Wunderground v.1.13,2013-11-11 09:55:00,
2013-11-11 05:00:00,77.0,-99.9,30.03,NE,43,4.0,4.0,255,0.00,,,0.03,Wunderground v.1.13,2013-11-11 10:00:00,
2013-11-11 05:10:00,77.0,-99.9,30.03,NE,42,4.0,4.0,255,0.00,,,0.03,Wunderground v.1.13,2013-11-11 10:10:00,
2013-11-11 05:20:00,77.4,-99.9,30.03,NE,45,4.0,4.0,255,0.00,,,0.03,Wunderground v.1.13,2013-11-11 10:20:00,
2013-11-11 05:30:00,77.2,-99.9,30.03,NE,45,4.0,5.0,255,0.00,,,0.03,Wunderground v.1.13,2013-11-11 10:30:00,
2013-11-11 05:35:00,77.2,-99.9,30.03,NNE,32,4.0,4.0,255,0.00,,,0.03,Wunderground v.1.13,2013-11-11 10:35:00,
2013-11-11 05:45:00,77.2,-99.9,30.03,NE,42,4.0,4.0,255,0.00,,,0.03,Wunderground v.1.13,2013-11-11 10:45:00,
2013-11-11 05:55:00,77.2,-99.9,30.03,NE,35,4.0,5.0,255,0.00,,,0.03,Wunderground v.1.13,2013-11-11 10:55:00,
2013-11-11 06:00:00,77.4,-99.9,30.04,NE,38,4.0,4.0,255,0.00,,,0.03,Wunderground v.1.13,2013-11-11 11:00:00,
2013-11-11 06:10:00,77.4,-99.9,30.04,NE,41,5.0,8.0,255,0.00,,,0.03,Wunderground v.1.13,2013-11-11 11:10:00,
2013-11-11 06:15:00,77.4,-99.9,30.04,NE,42,5.0,5.0,255,0.00,,,0.03,Wunderground v.1.13,2013-11-11 11:15:00,
2013-11-11 06:25:00,77.2,-99.9,30.04,NE,34,4.0,8.0,255,0.00,,,0.03,Wunderground v.1.13,2013-11-11 11:25:00,
2013-11-11 06:35:00,77.2,-99.9,30.04,NE,44,5.0,5.0,255,0.00,,,0.03,Wunderground v.1.13,2013-11-11 11:35:00,
2013-11-11 06:45:00,77.0,-99.9,30.04,NE,44,3.0,4.0,255,0.00,,,0.03,Wunderground v.1.13,2013-11-11 11:45:00,
2013-11-11 06:50:00,77.0,-99.9,30.04,NE,44,4.0,4.0,255,0.00,,,0.03,Wunderground v.1.13,2013-11-11 11:50:00,
2013-11-11 07:00:00,77.0,-99.9,30.04,NE,55,4.0,4.0,255,0.00,,,0.03,Wunderground v.1.13,2013-11-11 12:00:00,
2013-11-11 07:10:00,77.4,-99.9,30.04,NE,52,3.0,3.0,255,0.00,,,0.03,Wunderground v.1.13,2013-11-11 12:10:00,
2013-11-11 07:15:00,77.4,-99.9,30.05,NE,51,3.0,3.0,255,0.00,,,0.03,Wunderground v.1.13,2013-11-11 12:15:00,
2013-11-11 07:25:00,77.6,-99.9,30.05,NE,53,3.0,3.0,255,0.00,,,0.03,Wunderground v.1.13,2013-11-11 12:25:00,
2013-11-11 07:30:00,77.7,-99.9,30.06,ENE,57,3.0,3.0,255,0.00,,,0.03,Wunderground v.1.13,2013-11-11 12:30:00,
2013-11-11 07:40:00,77.7,-99.9,30.06,ENE,57,4.0,4.0,255,0.00,,,0.03,Wunderground v.1.13,2013-11-11 12:40:00,
2013-11-11 07:50:00,77.9,-99.9,30.06,NE,44,5.0,5.0,255,0.00,,,0.03,Wunderground v.1.13,2013-11-11 12:50:00,
2013-11-11 08:00:00,78.3,-99.9,30.06,NE,48,4.0,9.0,255,0.00,,,0.03,Wunderground v.1.13,2013-11-11 13:00:00,
2013-11-11 08:10:00,78.8,-99.9,30.06,NE,53,4.0,5.0,255,0.00,,,0.03,Wunderground v.1.13,2013-11-11 13:10:00,
2013-11-11 08:20:00,79.0,-99.9,30.06,ENE,57,4.0,5.0,255,0.00,,,0.03,Wunderground v.1.13,2013-11-11 13:20:00,
2013-11-11 08:30:00,79.0,-99.9,30.07,NE,35,5.0,5.0,255,0.00,,,0.03,Wunderground v.1.13,2013-11-11 13:30:00,
2013-11-11 08:35:00,79.0,-99.9,30.07,NE,38,5.0,5.0,255,0.00,,,0.03,Wunderground v.1.13,2013-11-11 13:35:00,
2013-11-11 08:45:00,79.6,-99.9,30.07,ENE,59,6.0,6.0,255,0.00,,,0.03,Wunderground v.1.13,2013-11-11 13:45:00,
2013-11-11 08:50:00,79.4,-99.9,30.07,NE,43,6.0,9.0,255,0.00,,,0.03,Wunderground v.1.13,2013-11-11 13:50:00,
2013-11-11 09:00:00,79.8,-99.9,30.07,NE,53,5.0,5.0,255,0.00,,,0.03,Wunderground v.1.13,2013-11-11 14:00:00,
2013-11-11 09:10:00,79.9,-99.9,30.07,ENE,74,5.0,8.0,255,0.00,,,0.03,Wunderground v.1.13,2013-11-11 14:10:00,
2013-11-11 09:20:00,80.9,-99.9,30.08,NE,46,4.0,5.0,255,0.00,,,0.03,Wunderground v.1.13,2013-11-11 14:20:00,
2013-11-11 09:30:00,80.9,-99.9,30.08,ENE,73,5.0,5.0,255,0.00,,,0.03,Wunderground v.1.13,2013-11-11 14:30:00,
2013-11-11 09:35:00,81.2,-99.9,30.08,ENE,65,5.0,5.0,255,0.00,,,0.03,Wunderground v.1.13,2013-11-11 14:35:00,
2013-11-11 09:45:00,81.1,-99.9,30.08,ENE,63,5.0,5.0,255,0.00,,,0.03,Wunderground v.1.13,2013-11-11 14:45:00,
2013-11-11 09:50:00,81.4,-99.9,30.08,ENE,65,5.0,5.0,255,0.00,,,0.03,Wunderground v.1.13,2013-11-11 14:50:00,
2013-11-11 10:00:00,82.0,-99.9,30.07,ENE,58,6.0,6.0,255,0.00,,,0.03,Wunderground v.1.13,2013-11-11 15:00:00,
2013-11-11 10:10:00,82.4,-99.9,30.07,ENE,61,6.0,6.0,255,0.00,,,0.03,Wunderground v.1.13,2013-11-11 15:10:00,
2013-11-11 10:20:00,82.0,-99.9,30.07,East,80,6.0,8.0,255,0.00,,,0.03,Wunderground v.1.13,2013-11-11 15:20:00,
2013-11-11 10:25:00,81.8,-99.9,30.07,ENE,66,6.0,6.0,255,0.00,,,0.03,Wunderground v.1.13,2013-11-11 15:25:00,
2013-11-11 10:35:00,80.7,-99.9,30.08,ENE,58,6.0,8.0,255,0.00,,,0.03,Wunderground v.1.13,2013-11-11 15:35:00,
2013-11-11 10:45:00,81.2,-99.9,30.07,ENE,74,6.0,6.0,255,0.00,,,0.03,Wunderground v.1.13,2013-11-11 15:45:00,
2013-11-11 10:50:00,81.1,-99.9,30.07,ENE,59,6.0,9.0,255,0.00,,,0.03,Wunderground v.1.13,2013-11-11 15:50:00,
2013-11-11 10:55:00,81.1,-99.9,30.07,ENE,69,6.0,6.0,255,0.00,,,0.03,Wunderground v.1.13,2013-11-11 15:55:00,
2013-11-11 11:10:00,82.4,-99.9,30.07,ENE,76,6.0,6.0,255,0.00,,,0.03,Wunderground v.1.13,2013-11-11 16:10:00,
2013-11-11 11:15:00,82.4,-99.9,30.07,ENE,64,5.0,5.0,255,0.00,,,0.03,Wunderground v.1.13,2013-11-11 16:15:00,
2013-11-11 11:25:00,83.6,-99.9,30.07,ENE,70,5.0,10.0,255,0.00,,,0.03,Wunderground v.1.13,2013-11-11 16:25:00,
2013-11-11 11:30:00,84.1,-99.9,30.07,NE,52,5.0,5.0,255,0.00,,,0.03,Wunderground v.1.13,2013-11-11 16:30:00,
2013-11-11 11:35:00,84.1,-99.9,30.07,ENE,67,6.0,10.0,255,0.00,,,0.03,Wunderground v.1.13,2013-11-11 16:35:00,
2013-11-11 11:40:00,83.8,-99.9,30.07,NE,40,6.0,6.0,255,0.00,,,0.03,Wunderground v.1.13,2013-11-11 16:40:00,
2013-11-11 11:45:00,83.6,-99.9,30.06,ENE,74,5.0,5.0,255,0.00,,,0.03,Wunderground v.1.13,2013-11-11 16:45:00,
2013-11-11 11:50:00,83.6,-99.9,30.06,ENE,59,5.0,5.0,255,0.00,,,0.03,Wunderground v.1.13,2013-11-11 16:50:00,
2013-11-11 12:00:00,83.8,-99.9,30.06,ENE,71,6.0,6.0,255,0.00,,,0.03,Wunderground v.1.13,2013-11-11 17:00:00,
2013-11-11 12:10:00,83.4,-99.9,30.06,ENE,76,5.0,10.0,255,0.00,,,0.03,Wunderground v.1.13,2013-11-11 17:10:00,
2013-11-11 12:15:00,83.4,-99.9,30.06,ENE,78,5.0,5.0,255,0.00,,,0.03,Wunderground v.1.13,2013-11-11 17:15:00,
2013-11-11 12:25:00,83.6,-99.9,30.06,NE,40,6.0,6.0,255,0.00,,,0.03,Wunderground v.1.13,2013-11-11 17:25:00,
2013-11-11 12:35:00,83.4,-99.9,30.05,ENE,57,5.0,8.0,255,0.00,,,0.03,Wunderground v.1.13,2013-11-11 17:35:00,
2013-11-11 12:45:00,84.3,-99.9,30.04,NE,34,5.0,6.0,255,0.00,,,0.03,Wunderground v.1.13,2013-11-11 17:45:00,
2013-11-11 12:50:00,83.8,-99.9,30.04,NE,44,6.0,6.0,255,0.00,,,0.03,Wunderground v.1.13,2013-11-11 17:50:00,
2013-11-11 13:00:00,82.8,-99.9,30.03,East,84,5.0,5.0,255,0.00,,,0.03,Wunderground v.1.13,2013-11-11 18:00:00,
2013-11-11 13:10:00,83.2,-99.9,30.03,ENE,69,6.0,7.0,255,0.00,,,0.03,Wunderground v.1.13,2013-11-11 18:10:00,
2013-11-11 13:20:00,83.4,-99.9,30.02,ENE,76,6.0,10.0,255,0.00,,,0.03,Wunderground v.1.13,2013-11-11 18:20:00,
2013-11-11 13:25:00,83.6,-99.9,30.02,East,84,6.0,6.0,255,0.00,,,0.03,Wunderground v.1.13,2013-11-11 18:25:00,
2013-11-11 13:35:00,83.2,-99.9,30.02,ENE,72,5.0,5.0,255,0.00,,,0.03,Wunderground v.1.13,2013-11-11 18:35:00,
2013-11-11 13:40:00,83.6,-99.9,30.02,NE,46,6.0,10.0,255,0.00,,,0.03,Wunderground v.1.13,2013-11-11 18:40:00,
2013-11-11 13:50:00,83.2,-99.9,30.02,NE,39,6.0,6.0,255,0.00,,,0.03,Wunderground v.1.13,2013-11-11 18:50:00,
2013-11-11 13:55:00,83.6,-99.9,30.02,NNE,25,6.0,7.0,255,0.00,,,0.03,Wunderground v.1.13,2013-11-11 18:55:00,
2013-11-11 14:00:00,83.2,-99.9,30.02,ENE,57,5.0,5.0,255,0.00,,,0.03,Wunderground v.1.13,2013-11-11 19:00:00,
2013-11-11 14:10:00,83.0,-99.9,30.02,ENE,67,6.0,6.0,255,0.00,,,0.03,Wunderground v.1.13,2013-11-11 19:10:00,
2013-11-11 14:20:00,83.2,-99.9,30.02,ENE,57,5.0,5.0,255,0.00,,,0.03,Wunderground v.1.13,2013-11-11 19:20:00,
2013-11-11 14:25:00,82.8,-99.9,30.02,ENE,75,6.0,6.0,255,0.00,,,0.03,Wunderground v.1.13,2013-11-11 19:25:00,
2013-11-11 14:30:00,82.8,-99.9,30.01,NE,55,6.0,6.0,255,0.00,,,0.03,Wunderground v.1.13,2013-11-11 19:30:00,
2013-11-11 14:40:00,82.4,-99.9,30.01,ENE,76,6.0,6.0,255,0.00,,,0.03,Wunderground v.1.13,2013-11-11 19:40:00,
2013-11-11 14:45:00,82.8,-99.9,30.01,ENE,74,6.0,8.0,255,0.00,,,0.03,Wunderground v.1.13,2013-11-11 19:45:00,
2013-11-11 14:50:00,83.0,-99.9,30.01,ENE,76,5.0,5.0,255,0.00,,,0.03,Wunderground v.1.13,2013-11-11 19:50:00,
2013-11-11 15:00:00,82.6,-99.9,30.01,ENE,65,5.0,8.0,255,0.00,,,0.03,Wunderground v.1.13,2013-11-11 20:00:00,
2013-11-11 15:10:00,82.2,-99.9,30.01,ENE,60,6.0,6.0,255,0.00,,,0.03,Wunderground v.1.13,2013-11-11 20:10:00,
2013-11-11 15:15:00,81.8,-99.9,30.01,ENE,73,5.0,7.0,255,0.00,,,0.03,Wunderground v.1.13,2013-11-11 20:15:00,
2013-11-11 15:25:00,81.1,-99.9,30.01,NE,46,6.0,7.0,255,0.00,,,0.03,Wunderground v.1.13,2013-11-11 20:25:00,
2013-11-11 15:30:00,81.1,-99.9,30.01,ENE,68,5.0,5.0,255,0.00,,,0.03,Wunderground v.1.13,2013-11-11 20:30:00,
2013-11-11 15:40:00,80.1,-99.9,30.01,ENE,63,5.0,7.0,255,0.00,,,0.03,Wunderground v.1.13,2013-11-11 20:40:00,
2013-11-11 15:45:00,80.3,-99.9,30.01,ENE,63,5.0,5.0,255,0.00,,,0.03,Wunderground v.1.13,2013-11-11 20:45:00,
2013-11-11 15:55:00,80.5,-99.9,30.01,ENE,76,4.0,4.0,255,0.00,,,0.03,Wunderground v.1.13,2013-11-11 20:55:00,
2013-11-11 16:10:00,80.3,-99.9,30.01,ENE,68,4.0,4.0,255,0.00,,,0.03,Wunderground v.1.13,2013-11-11 21:10:00,
2013-11-11 16:20:00,80.1,-99.9,30.01,NNE,26,5.0,5.0,255,0.00,,,0.03,Wunderground v.1.13,2013-11-11 21:20:00,
2013-11-11 16:30:00,79.8,-99.9,30.01,ENE,71,4.0,4.0,255,0.00,,,0.03,Wunderground v.1.13,2013-11-11 21:30:00,
2013-11-11 16:35:00,79.4,-99.9,30.01,ENE,65,4.0,4.0,255,0.00,,,0.03,Wunderground v.1.13,2013-11-11 21:35:00,
2013-11-11 16:45:00,79.2,-99.9,30.02,ENE,74,5.0,5.0,255,0.00,,,0.03,Wunderground v.1.13,2013-11-11 21:45:00,
2013-11-11 16:50:00,79.0,-99.9,30.02,NE,36,5.0,5.0,255,0.00,,,0.03,Wunderground v.1.13,2013-11-11 21:50:00,
2013-11-11 16:55:00,79.0,-99.9,30.02,ENE,57,4.0,7.0,255,0.00,,,0.03,Wunderground v.1.13,2013-11-11 21:55:00,
2013-11-11 17:10:00,78.8,-99.9,30.01,ENE,63,4.0,4.0,255,0.00,,,0.03,Wunderground v.1.13,2013-11-11 22:10:00,
2013-11-11 17:15:00,78.6,-99.9,30.01,NE,55,4.0,4.0,255,0.00,,,0.03,Wunderground v.1.13,2013-11-11 22:15:00,
2013-11-11 17:25:00,78.5,-99.9,30.01,NE,49,5.0,5.0,255,0.00,,,0.03,Wunderground v.1.13,2013-11-11 22:25:00,
2013-11-11 17:30:00,78.3,-99.9,30.01,NE,53,4.0,5.0,255,0.00,,,0.03,Wunderground v.1.13,2013-11-11 22:30:00,
2013-11-11 17:35:00,78.1,-99.9,30.01,NE,39,5.0,7.0,255,0.00,,,0.03,Wunderground v.1.13,2013-11-11 22:35:00,
2013-11-11 17:40:00,78.1,-99.9,30.01,NE,52,5.0,5.0,255,0.00,,,0.03,Wunderground v.1.13,2013-11-11 22:40:00,
2013-11-11 17:50:00,77.9,-99.9,30.02,NE,55,4.0,4.0,255,0.00,,,0.03,Wunderground v.1.13,2013-11-11 22:50:00,
2013-11-11 18:00:00,77.9,-99.9,30.01,ENE,63,4.0,7.0,255,0.00,,,0.03,Wunderground v.1.13,2013-11-11 23:00:00,
2013-11-11 18:10:00,77.7,-99.9,30.01,NE,40,4.0,7.0,255,0.00,,,0.03,Wunderground v.1.13,2013-11-11 23:10:00,
2013-11-11 18:15:00,77.7,-99.9,30.01,ENE,71,4.0,5.0,255,0.00,,,0.03,Wunderground v.1.13,2013-11-11 23:15:00,
2013-11-11 18:20:00,77.7,-99.9,30.01,NE,55,5.0,5.0,255,0.00,,,0.03,Wunderground v.1.13,2013-11-11 23:20:00,
2013-11-11 18:25:00,77.7,-99.9,30.01,ENE,66,5.0,5.0,255,0.00,,,0.03,Wunderground v.1.13,2013-11-11 23:25:00,
2013-11-11 18:35:00,77.6,-99.9,30.02,ENE,57,5.0,5.0,255,0.00,,,0.03,Wunderground v.1.13,2013-11-11 23:35:00,
2013-11-11 18:40:00,77.6,-99.9,30.02,East,88,5.0,5.0,255,0.00,,,0.03,Wunderground v.1.13,2013-11-11 23:40:00,
2013-11-11 18:50:00,77.6,-99.9,30.02,East,89,5.0,5.0,255,0.00,,,0.03,Wunderground v.1.13,2013-11-11 23:50:00,
2013-11-11 18:55:00,77.6,-99.9,30.02,NE,45,5.0,5.0,255,0.00,,,0.03,Wunderground v.1.13,2013-11-11 23:55:00,
2013-11-11 19:00:00,77.4,-99.9,30.02,NE,56,5.0,5.0,255,0.00,,,0.03,Wunderground v.1.13,2013-11-12 00:00:00,
2013-11-11 19:10:00,77.4,-99.9,30.02,ENE,57,4.0,4.0,255,0.00,,,0.03,Wunderground v.1.13,2013-11-12 00:10:00,
2013-11-11 19:15:00,77.4,-99.9,30.02,NE,51,4.0,5.0,255,0.00,,,0.03,Wunderground v.1.13,2013-11-12 00:15:00,
2013-11-11 19:25:00,77.2,-99.9,30.02,ENE,61,4.0,4.0,255,0.00,,,0.03,Wunderground v.1.13,2013-11-12 00:25:00,
2013-11-11 19:30:00,77.2,-99.9,30.03,ENE,69,4.0,4.0,255,0.00,,,0.03,Wunderground v.1.13,2013-11-12 00:30:00,
2013-11-11 19:35:00,77.2,-99.9,30.03,NE,49,4.0,4.0,255,0.00,,,0.03,Wunderground v.1.13,2013-11-12 00:35:00,
2013-11-11 19:45:00,77.2,-99.9,30.03,NE,52,4.0,4.0,255,0.00,,,0.03,Wunderground v.1.13,2013-11-12 00:45:00,
2013-11-11 19:50:00,77.2,-99.9,30.03,NE,46,4.0,4.0,255,0.00,,,0.03,Wunderground v.1.13,2013-11-12 00:50:00,
2013-11-11 19:55:00,77.0,-99.9,30.03,NNE,31,4.0,4.0,255,0.00,,,0.03,Wunderground v.1.13,2013-11-12 00:55:00,
2013-11-11 20:10:00,77.0,-99.9,30.03,ENE,65,4.0,5.0,255,0.00,,,0.03,Wunderground v.1.13,2013-11-12 01:10:00,
2013-11-11 20:20:00,76.8,-99.9,30.03,ENE,66,5.0,5.0,255,0.00,,,0.03,Wunderground v.1.13,2013-11-12 01:20:00,
2013-11-11 20:25:00,76.8,-99.9,30.03,ENE,67,4.0,4.0,255,0.00,,,0.03,Wunderground v.1.13,2013-11-12 01:25:00,
2013-11-11 20:35:00,77.0,-99.9,30.03,NE,53,4.0,6.0,255,0.00,,,0.03,Wunderground v.1.13,2013-11-12 01:35:00,
2013-11-11 20:40:00,76.8,-99.9,30.03,NE,53,4.0,4.0,255,0.00,,,0.03,Wunderground v.1.13,2013-11-12 01:40:00,
2013-11-11 20:45:00,76.8,-99.9,30.03,East,88,5.0,5.0,255,0.00,,,0.03,Wunderground v.1.13,2013-11-12 01:45:00,
2013-11-11 20:50:00,76.8,-99.9,30.03,NE,46,4.0,5.0,255,0.00,,,0.03,Wunderground v.1.13,2013-11-12 01:50:00,
2013-11-11 21:00:00,77.0,-99.9,30.03,NE,55,5.0,5.0,255,0.00,,,0.03,Wunderground v.1.13,2013-11-12 02:00:00,
2013-11-11 21:10:00,77.0,-99.9,30.03,ENE,58,4.0,8.0,255,0.00,,,0.03,Wunderground v.1.13,2013-11-12 02:10:00,
2013-11-11 21:15:00,77.0,-99.9,30.03,NE,39,4.0,4.0,255,0.00,,,0.03,Wunderground v.1.13,2013-11-12 02:15:00,
2013-11-11 21:25:00,76.8,-99.9,30.03,NE,44,4.0,4.0,255,0.00,,,0.03,Wunderground v.1.13,2013-11-12 02:25:00,
2013-11-11 21:35:00,77.0,-99.9,30.04,NE,51,4.0,4.0,255,0.00,,,0.03,Wunderground v.1.13,2013-11-12 02:35:00,
2013-11-11 21:40:00,76.8,-99.9,30.04,NE,51,4.0,4.0,255,0.00,,,0.03,Wunderground v.1.13,2013-11-12 02:40:00,
2013-11-11 21:45:00,76.8,-99.9,30.04,NE,53,4.0,4.0,255,0.00,,,0.03,Wunderground v.1.13,2013-11-12 02:45:00,
2013-11-11 21:55:00,76.8,-99.9,30.04,ENE,59,5.0,5.0,255,0.00,,,0.03,Wunderground v.1.13,2013-11-12 02:55:00,
2013-11-11 22:00:00,77.0,-99.9,30.05,NE,43,4.0,4.0,255,0.00,,,0.03,Wunderground v.1.13,2013-11-12 03:00:00,
2013-11-11 22:10:00,76.8,-99.9,30.05,ENE,60,4.0,7.0,255,0.00,,,0.03,Wunderground v.1.13,2013-11-12 03:10:00,
2013-11-11 22:15:00,76.8,-99.9,30.04,NE,51,4.0,7.0,255,0.00,,,0.03,Wunderground v.1.13,2013-11-12 03:15:00,
2013-11-11 22:25:00,76.8,-99.9,30.04,NE,51,4.0,4.0,255,0.09,,,0.13,Wunderground v.1.13,2013-11-12 03:25:00,
2013-11-11 22:30:00,76.8,-99.9,30.04,NE,48,3.0,9.0,255,0.05,,,0.13,Wunderground v.1.13,2013-11-12 03:30:00,
2013-11-11 22:35:00,76.8,-99.9,30.04,NE,41,4.0,4.0,255,0.00,,,0.13,Wunderground v.1.13,2013-11-12 03:35:00,
2013-11-11 22:40:00,76.8,-99.9,30.04,NE,40,4.0,4.0,255,0.00,,,0.13,Wunderground v.1.13,2013-11-12 03:40:00,
2013-11-11 22:50:00,76.8,-99.9,30.04,NE,41,4.0,4.0,255,0.00,,,0.13,Wunderground v.1.13,2013-11-12 03:50:00,
2013-11-11 23:00:00,76.8,-99.9,30.04,NE,51,3.0,3.0,255,0.00,,,0.13,Wunderground v.1.13,2013-11-12 04:00:00,
2013-11-11 23:10:00,76.8,-99.9,30.04,NE,53,3.0,3.0,255,0.00,,,0.13,Wunderground v.1.13,2013-11-12 04:10:00,
2013-11-11 23:15:00,76.8,-99.9,30.04,ENE,74,3.0,3.0,255,0.00,,,0.13,Wunderground v.1.13,2013-11-12 04:15:00,
2013-11-11 23:25:00,76.8,-99.9,30.04,NE,49,4.0,4.0,255,0.00,,,0.13,Wunderground v.1.13,2013-11-12 04:25:00,
2013-11-11 23:30:00,76.8,-99.9,30.04,NE,53,4.0,4.0,255,0.00,,,0.13,Wunderground v.1.13,2013-11-12 04:30:00,
2013-11-11 23:40:00,76.8,-99.9,30.04,ENE,65,3.0,4.0,255,0.00,,,0.13,Wunderground v.1.13,2013-11-12 04:40:00,
2013-11-11 23:50:00,76.8,-99.9,30.03,ENE,71,4.0,4.0,255,0.00,,,0.13,Wunderground v.1.13,2013-11-12 04:50:00,